www.pogodaiklimat.ru

Погода и климат >> Архив погоды >> Россия >> Якутия >> Усть-Мая


ПОГОДА в Усть-Мае

АРХИВ ПОГОДЫ в Усть-Мае

Время (UTC), дата Ветер
(напр.,м/с)
 
Видим.   Явления Облачность Т
(С)
Тd
(С)
f
(%)
Тe
(С)
Тes
(С)
Комфортность P
(гПа)
Po
(гПа)
Тmin
(С)
Tmax
(С)
R
(мм)
R24
(мм)
S
(см)
09 18.04 СВ 1 50 км 6/4 1000 м
[Sc diur, vesp Ac trans]
+3.3 -11.8 32 +3 +3 1011.6 990.6 +3.8
12 18.04 СВ 1 50 км 8/0
[Ac trans Ci fib]
-1.5 -8.5 59 -3 -3 1012.5 991.1
15 18.04 СВ 1 50 км 8/0
[Ac trans Ci fib]
-1.5 -8.5 59 -3 -3 1012.5 991.1
18 18.04 С 2 50 км 10/0
[Ac trans Cs]
-3.5 -8.9 66 -7 -7 1012.7 991.1
21 18.04 В 1 50 км 10/0
[Ac trans Cs]
-1.9 -9.4 56 -3 -3 1013.7 992.2 -4.1 30
00 19.04 ЮВ 4
{10}
50 км 10/1 1000 м
[Sc Ac trans Cs]
-0.3 -3.6 78 -6 -4 1014.7 993.3
03 19.04 Ю 5 50 км 10/5 1000 м
[Cb cap Ac As]
+2.0 -4.4 63 -3 -2 1014.3 993.2
06 19.04 Ю 5 50 км 10/5 1000 м
[Cb cap Ac As]
+2.2 -2.7 70 -3 -3 1014.5 993.4
09 19.04 ЮВ 4 20 км {ливн. осадки} 10/6 600 м
[Cb cap Ac trans Cs]
+1.6 -0.3 87 -4 -3 1015.5 994.3 +2.9 0.0
12 19.04 СВ 1 50 км {ливн. осадки} 10/6 600 м
[Cb cap Ac trans Cs]
+0.2 -0.8 93 -2 -2 1016.1 994.8
15 19.04 СВ 1 50 км 10/5 1000 м
[Cb cap Ac trans Cs]
-0.3 -1.2 94 -2 -2 1015.9 994.6
18 19.04 В 1 50 км 10/4 1000 м
[Cb cap Ac trans Cs]
-0.4 -2.5 86 -2 -2 1015.6 994.3
21 19.04 ЮВ 1 50 км 10/0
[Ac trans]
+0.8 -4.8 66 -1 -0 1015.7 994.5 -0.8 0.0 27
00 20.04 ЮВ 4 50 км 10/4 1000 м
[Cu med, cong Ac As]
+2.0 -5.2 59 -2 -2 1015.7 994.5
03 20.04 ЮВ 4 50 км 8/3 1000 м
[Cu med, cong Ac trans]
+5.0 -3.8 53 +1 +4 1013.9 993.0
06 20.04 ЮВ 2 50 км 8/8 1000 м
[Cu med, cong]
+6.8 -5.4 41 +5 +7 1011.9 991.2
09 20.04 ЮВ 3 50 км 3/3 1000 м
[Cu hum]
+7.2 -5.3 41 +5 +5 1010.9 990.2 +7.5
12 20.04 В 2 50 км 1/0
[Ac lent]
+3.8 -6.3 48 +2 +2 1011.1 990.1
15 20.04 ЮВ 5 50 км 4/0
[Ac trans Ci fib]
+2.7 -6.2 52 -2 -2 1010.7 989.7
18 20.04 В 2 50 км 3/0
[Ci fib]
+0.4 -6.9 58 -3 -3 1010.7 989.5
21 20.04 ЮВ 6 50 км ясно +1.2 -6.9 55 -4 -4 1010.3 989.2 -1.3 15
00 21.04 ЮВ 7-10
{11}
50 км 1/0
[Ci fib]
+5.0 -6.2 44 0 +2 1010.3 989.5
03 21.04 ЮВ 7-12
{12}
50 км ясно +8.1 -5.9 36 +4 +7 1009.3 988.7
06 21.04 ЮВ 6-11
{12}
50 км 1/0
[Ci fib]
+9.3 -5.4 35 +6 +9 1008.9 988.4
09 21.04 ЮВ 7-10
{12}
50 км 3/0
[Ci fib]
+8.7 -6.4 34 +5 +5 1009.4 988.9 +9.6
12 21.04 ЮВ 2
{10}
50 км 3/0
[Ac trans]
+6.1 -5.8 42 +4 +4 1011.6 990.8
15 21.04 ЮВ 4 50 км ясно +3.8 -2.2 65 -0 -0 1012.9 991.9
18 21.04 ЮВ 4 50 км 1/0
[Ac trans]
+3.0 -1.7 71 -1 -1 1013.5 992.4
21 21.04 ЮВ 5 50 км 5/0
[Ci fib]
+3.0 -2.1 69 -2 -2 1014.6 993.5 +2.2 7
00 22.04 ЮВ 5
{12}
50 км 3/0
[Ci fib]
+5.3 -2.1 59 +1 +4 1015.0 994.1
03 22.04 ЮВ 5
{11}
50 км 10/0
[Cs]
+7.7 -2.6 48 +4 +9 1014.9 994.2
06 22.04 Ю 4
{10}
50 км 10/0
[Cs]
+9.1 -1.6 47 +7 +10 1014.9 994.3
09 22.04 В 2 50 км 10/0
[Cs]
+9.4 -2.5 43 +8 +9 1015.2 994.6 +10.6
12 22.04 В 1 50 км 6/0
[Ac trans Ci fib]
+5.5 -3.4 53 +5 +5 1017.1 996.2
15 22.04 СВ 1 50 км 3/0
[Ac trans]
+0.1 -2.3 84 -2 -2 1018.1 996.7
18 22.04 С 2 50 км 3/0
[Ac trans]
-1.4 -2.8 90 -5 -5 1019.3 997.8
21 22.04 С 1 50 км 10/0
[Ac trans Cs]
-0.7 -2.4 88 -3 -2 1020.0 998.5 -1.7 3
00 23.04 С 1 50 км 10/0
[Ac trans Ci fib]
+4.6 -1.0 67 +4 +9 1019.9 998.9
03 23.04 СВ 3 50 км 10/1 1000 м
[Cu hum Cs]
+9.8 -0.4 49 +8 +14 1018.7 998.1
06 23.04 СВ 2 50 км 10/4 1000 м
[Cu med, cong Ci fib]
+10.3 -1.6 43 +9 +13 1018.2 997.6
09 23.04 В 2 50 км 10/3 1000 м
[Sc diur, vesp Cs]
+9.7 -2.2 43 +9 +9 1018.7 998.0 +11.1
12 23.04 штиль 0 50 км 10/3 1000 м
[Sc Ac trans Cs]
+4.8 -2.2 60 +4 +4 1020.0 999.0
15 23.04 СВ 2 50 км 6/0
[Ac trans Ci fib]
+2.0 -1.4 78 -1 -1 1021.1 999.9
18 23.04 С 1 50 км 6/3 1000 м
[Sc Ac trans Ci fib]
-0.5 -1.1 96 -3 -3 1022.3 1000.8
21 23.04 Ю 2 50 км 9/4 1000 м
[Sc Ac trans]
+1.6 -0.5 86 -2 -1 1022.7 1001.4 -0.8 1
00 24.04 ЮВ 1 50 км 8/4 1000 м
[Cb cap Ac trans]
+5.5 -0.8 64 +5 +7 1023.3 1002.2
03 24.04 Ю 2 50 км 3/3 1000 м
[Cu med, cong]
+10.0 -2.1 43 +9 +16 1022.2 1001.5
06 24.04 ЮВ 1 50 км 6/6 1000 м
[Sc diur, vesp]
+9.9 -2.9 40 +10 +13 1021.5 1000.8
09 24.04 ЮВ 1 50 км 6/4 1000 м
[Sc diur, vesp Ac trans]
+9.2 -3.0 42 +9 +10 1021.0 1000.3 +10.8
12 24.04 штиль 0 50 км 6/3 1000 м
[Sc Ac trans]
+3.6 -2.0 67 +3 +3 1021.8 1000.6
15 24.04 штиль 0 50 км 4/0
[Ac trans]
+0.5 -2.1 83 -1 -1 1022.1 1000.7
18 24.04 штиль 0 50 км 3/0
[Ac trans]
-1.5 -2.5 93 -3 -3 1022.2 1000.6
21 24.04 З 1 50 км 1/0
[Ac trans]
-0.3 -1.6 91 -2 -1 1022.3 1000.8 -3.0
00 25.04 штиль 0 50 км 5/3 1000 м
[Sc Ac trans]
+5.1 -2.2 59 +5 +10 1021.5 1000.5
03 25.04 СЗ 2 50 км 8/4 1000 м
[Sc Ac trans]
+9.4 -3.8 39 +8 +12 1019.7 999.0

 

Местоположение метеостанции Усть-Мая (Якутия, Россия): широта 60.35 долгота 134.40 высота над уровнем моря 170 м.

В архиве по умолчанию представлена погода в Усть-Мае за последнюю неделю. Архивные данные за месяц целиком и за предыдущие месяцы, начиная с января 2011 года, Вы можете получить, выбрав интересующий диапазон дат из раскрывающегося списка и нажав кнопку "Ввод!".

Внимание! Время в таблицах - всемирное. Для получения местного времени необходимо прибавить поправку, которая в Усть-Мае равна 9 ч.

Смотрите также архив погоды в соседних городах и на ближайших метеорологических станциях:

Погода в Усть-Миле (Якутия, Россия) (112 км)
Погода в Усть-Юдоме (Якутия, Россия) (136 км)
Погода в Амге (Якутия, Россия) (149 км)
Погода в Охотском Перевозе (Якутия, Россия) (179 км)
Погода в Югоренке (Якутия, Россия) (189 км)
Погода в Чурапче (Якутия, Россия) (210 км)
Погода в Ытык-Кюёле (Якутия, Россия) (230 км)
Погода в Тегюльте (Якутия, Россия) (242 км)
Погода в Крест-Хальджае (Якутия, Россия) (275 км)
Погода в Учуре (Якутия, Россия) (280 км)

Пояснения к столбцам:

Ветер - указаны скорость ветра в м/с - средняя за 10 мин, порывы в срок и между сроками (в фигурных скобках) и направление, откуда дует ветер: С - северный, СВ - северо-восточный, В - восточный, ЮВ - юго-восточный, Ю - южный, ЮЗ - юго-западный, З - западный, СЗ - северо-западный.
Видимость - горизонтальная дальность видимости в метрах или километрах. При видимости от 1 до 10 км при отсутствии осадков обычно наблюдается дымка, при ухудшении видимости до 1 км и менее - туман. В сухую погоду видимость может ухудшаться дымом, пылью или мглою.
Явления - указаны атмосферные явления, наблюдавшиеся в срок или в последний час перед сроком; фигурными скобками обозначены явления, наблюдавшиеся между сроками (за 1-3 часа до срока); квадратными скобками обозначены град или гололедные отложения с указанием их диаметра в мм.
Облачность - указаны через наклонную черту общая и нижняя облачность в баллах и высота нижней границы облаков в метрах; квадратными скобками обозначены формы облаков: Ci - перистые, Cs - перисто-слоистые, Cc - перисто-кучевые, Ac - высококучевые, As - высокослоистые, Sc - слоисто-кучевые, Ns - слоисто-дождевые, Cu - кучевые, Cb - кучево-дождевые. Подробнее классификацию облаков см. в Атласе облаков (PDF).
T - Температура воздуха - температура, измеренная на высоте 2 м над землей.
Td - Температура точки росы - температура, при понижении до которой содержащийся в воздухе водяной пар достигнет насыщения.
f - Относительная влажность воздуха - влажноcть воздуха, измеренная на высоте 2 м над землей.
Te - Эффективная температура - температура, которую ощущает одетый по сезону человек в тени. Характеристика душности погоды. При расчете учитывается влияние влажности воздуха и скорости ветра на теплоощущения человека.
Tes - Эффективная температура на солнце - температура, которую ощущает человек, с поправкой на солнечный нагрев. Характеристика знойности погоды. Зависит от высоты солнца над горизонтом, облачности и скорости ветра. Ночью, в пасмурную погоду, а также при ветре 12 м/с и более поправка равна нулю.
P - Атмосферное давление - приведенное к уровню моря атмосферное давление.
Po - Атмосферное давление - измеренное на уровне метеостанции атмосферное давление.
Tmin - Минимальная температура - минимум температуры воздуха на высоте 2 м над землей.
Tmax - Максимальная температура - максимум температуры воздуха на высоте 2 м над землей.
R - Количество осадков - Количество выпавших осадков за период времени, мм. При наведении курсора мыши на число - период времени, за который выпало указанное количество осадков.
R24 - Количество осадков - Количество выпавших осадков за 24 часа, мм.
S - Снежный покров - Высота снежного покрова, см. При наведении курсора мыши на число - состояние снежного покрова и степень покрытия местности в баллах.